{"data":{"norad_id":58458,"intl_designator":"2023-183X","name":"STARLINK-30962","alt_names":[],"object_type":"PAYLOAD","status":"ACTIVE","operator":null,"country":"US","launch_date":"2023-11-28","launch_site_code":"AFETR","launch_vehicle":null,"mission":null,"orbit_class":"UNKNOWN","rcs_meters":null,"size_class":null,"mass_kg":null,"dimensions":null,"purposes":["comms"],"wikipedia_slug":null,"has_3d_model":false,"image_url":null,"decayed_at":null,"tle_current":{"epoch":"2026-09-19T15:40:48.322848Z","epoch_age_seconds":219918,"freshness":"STALE","line1":"1 58458U 23183X   26262.65333707  .00000483  00000+0  27080-4 0  9994","line2":"2 58458  43.0054  25.7802 0001479 267.8071  92.2611 15.27575481156406","mean_motion":15.27575481,"eccentricity":0.0001479,"inclination_deg":43.0054,"raan_deg":25.7802,"arg_perigee_deg":267.8071,"mean_anomaly_deg":92.2611,"bstar":2.708e-5,"rev_number":15640,"period_min":94.267027581336,"perigee_km":482.04785615979,"apogee_km":484.07739900963,"semimajor_km":6861.1996275847,"source":"CELESTRAK","updated_at":"2026-09-21T09:00:33.879695Z"}}}